Location: ????????
(60.4333°N, 46.4710°E)
Time: 03:43:39
(UTC+00:00)

Cosmos 2360 Rocket - Pass Details

Date: 25 November 2020
Orbit: 834 x 845 km, 71.0° (Epoch: 19 January)

Event Time Altitude Azimuth Distance (km) Brightness Sun altitude
Rises 15:32:40 0° 263° (W) 3,385 6.7 -24.4°
Reaches altitude 10° 15:35:20 10° 272° (W) 2,452 5.7 -24.7°
Maximum altitude 15:40:27 35° 338° (NNW) 1,331 3.4 -25.4°
Enters shadow 15:42:23 28° 16° (NNE) 1,543 3.4 -25.6°
